This is the latest recevied weather packets stored in our database for station/object KR4KUV. If no packets are shown the sender has not sent any weather packets the latest 10 day(s).
| Time | Temp. | Humidity | Pressure | Rain* | Wind** | Luminosity | Snow |
|---|---|---|---|---|---|---|---|
| 1787854303 | 30° C | 72% | 1016.9 hPa | 0 mm | - | 436 W/m² | - |
| 1787853998 | 30° C | 74% | 1016.9 hPa | 0 mm | - | 674 W/m² | - |
| 1787853692 | 30° C | 73% | 1016.9 hPa | 0 mm | - | 585 W/m² | - |
| 1787853392 | 30° C | 73% | 1017 hPa | 0 mm | - | 347 W/m² | - |
| 1787853086 | 29.44° C | 75% | 1017.1 hPa | 0 mm | - | 777 W/m² | - |
| 1787852781 | 28.89° C | 74% | 1017.1 hPa | 0 mm | - | 277 W/m² | - |
| 1787852480 | 28.89° C | 76% | 1017.3 hPa | 0 mm | - | 238 W/m² | - |
| 1787852179 | 28.89° C | 77% | 1017.5 hPa | 0 mm | - | 304 W/m² | - |
| 1787851874 | 28.89° C | 75% | 1017.6 hPa | 0 mm | - | 259 W/m² | - |
| 1787851573 | 28.33° C | 76% | 1017.5 hPa | 0 mm | - | 181 W/m² | - |
| 1787851268 | 28.89° C | 77% | 1017.6 hPa | 0 mm | - | 131 W/m² | - |
| 1787850963 | 28.33° C | 78% | 1017.7 hPa | 0 mm | - | 147 W/m² | - |
| 1787850659 | 28.33° C | 77% | 1017.8 hPa | 0 mm | - | 120 W/m² | - |
| 1787850349 | 28.33° C | 77% | 1017.9 hPa | 0 mm | - | 108 W/m² | - |
| 1787850045 | 28.33° C | 77% | 1018.1 hPa | 0 mm | - | 149 W/m² | - |
| 1787849743 | 28.89° C | 76% | 1017.8 hPa | 0 mm | - | 137 W/m² | - |
| 1787849439 | 28.89° C | 75% | 1018.1 hPa | 0 mm | - | 214 W/m² | - |
| 1787849137 | 29.44° C | 75% | 1018.1 hPa | 0 mm | - | 248 W/m² | - |
| 1787848832 | 29.44° C | 72% | 1018.3 hPa | 0 mm | - | 226 W/m² | - |
| 1787848532 | 28.89° C | 75% | 1018.3 hPa | 0 mm | - | 714 W/m² | - |
| 1787848226 | 28.33° C | 77% | 1018.3 hPa | 0 mm | - | 258 W/m² | - |
| 1787847921 | 28.33° C | 77% | 1018.4 hPa | 0 mm | - | 144 W/m² | - |
| 1787847621 | 28.89° C | 75% | 1018.4 hPa | 0 mm | - | 180 W/m² | - |
| 1787847316 | 28.89° C | 71% | 1018.3 hPa | 0 mm | - | 201 W/m² | - |
| 1787847013 | 28.89° C | 74% | 1018.1 hPa | 0 mm | - | 719 W/m² | - |
* Rain latest hour (hover to see other rain measurements)
** Current wind speed in m/s (hover to see current wind gust speed)